TimeCST,TemperatureF,Dew PointF,Humidity,Sea Level PressureIn,VisibilityMPH,Wind Direction,Wind SpeedMPH,Gust SpeedMPH,PrecipitationIn,Events,Conditions,WindDirDegrees,DateUTC
12:15 AM,14.2,5.0,67,30.30,10.0,ENE,5.8,-,N/A,,Clear,70,2013-02-20 06:15:00
12:35 AM,14.4,4.6,65,30.29,10.0,ENE,6.9,-,N/A,,Clear,70,2013-02-20 06:35:00
12:55 AM,13.8,4.8,67,30.29,10.0,ENE,8.1,-,N/A,,Clear,70,2013-02-20 06:55:00
1:15 AM,13.1,4.5,68,30.29,10.0,ENE,5.8,-,N/A,,Clear,70,2013-02-20 07:15:00
1:35 AM,12.4,3.9,69,30.29,10.0,ENE,4.6,-,N/A,,Clear,70,2013-02-20 07:35:00
1:55 AM,12.0,3.7,69,30.29,10.0,ENE,5.8,-,N/A,,Clear,70,2013-02-20 07:55:00
2:15 AM,11.5,3.2,69,30.28,10.0,ENE,6.9,-,N/A,,Clear,70,2013-02-20 08:15:00
2:35 AM,11.1,3.4,71,30.27,10.0,ENE,9.2,-,N/A,,Clear,70,2013-02-20 08:35:00
2:55 AM,11.5,3.7,71,30.26,10.0,East,8.1,-,N/A,,Clear,80,2013-02-20 08:55:00
3:15 AM,11.1,4.1,73,30.25,10.0,ENE,9.2,-,N/A,,Clear,70,2013-02-20 09:15:00
3:35 AM,10.9,4.3,75,30.24,10.0,ENE,10.4,-,N/A,,Clear,70,2013-02-20 09:35:00
3:55 AM,10.4,4.1,76,30.24,10.0,East,9.2,-,N/A,,Clear,80,2013-02-20 09:55:00
4:15 AM,10.4,3.7,74,30.24,10.0,East,10.4,-,N/A,,Clear,80,2013-02-20 10:15:00
4:35 AM,10.2,3.7,75,30.23,10.0,East,11.5,-,N/A,,Clear,80,2013-02-20 10:35:00
4:55 AM,9.9,3.2,74,30.22,10.0,East,11.5,-,N/A,,Clear,80,2013-02-20 10:55:00
5:15 AM,9.7,3.2,75,30.23,10.0,East,15.0,-,N/A,,Scattered Clouds,80,2013-02-20 11:15:00
5:35 AM,9.7,3.2,75,30.23,10.0,East,11.5,-,N/A,,Mostly Cloudy,80,2013-02-20 11:35:00
5:55 AM,10.0,3.2,74,30.23,10.0,East,10.4,-,N/A,,Overcast,80,2013-02-20 11:55:00
6:15 AM,10.2,3.4,74,30.22,10.0,East,12.7,-,N/A,,Overcast,80,2013-02-20 12:15:00
6:35 AM,10.4,3.7,74,30.23,10.0,East,9.2,-,N/A,,Overcast,90,2013-02-20 12:35:00
6:55 AM,10.4,3.2,73,30.24,10.0,East,11.5,-,N/A,,Overcast,100,2013-02-20 12:55:00
7:15 AM,10.4,3.6,74,30.23,10.0,East,13.8,-,N/A,,Overcast,90,2013-02-20 13:15:00
7:35 AM,10.6,3.7,74,30.23,10.0,East,12.7,-,N/A,,Overcast,90,2013-02-20 13:35:00
7:55 AM,10.4,3.2,73,30.24,10.0,East,11.5,-,N/A,,Overcast,100,2013-02-20 13:55:00
8:15 AM,11.1,3.9,73,30.25,10.0,East,13.8,-,N/A,,Overcast,100,2013-02-20 14:15:00
8:35 AM,11.7,4.1,72,30.26,10.0,ESE,10.4,-,N/A,,Overcast,120,2013-02-20 14:35:00
8:55 AM,12.2,4.3,71,30.25,10.0,East,12.7,-,N/A,,Overcast,100,2013-02-20 14:55:00
9:15 AM,13.1,4.6,69,30.26,10.0,SE,10.4,-,N/A,,Overcast,130,2013-02-20 15:15:00
9:35 AM,14.0,4.6,66,30.26,10.0,ESE,11.5,-,N/A,,Overcast,120,2013-02-20 15:35:00
9:55 AM,14.9,5.2,65,30.25,10.0,ESE,13.8,-,N/A,,Overcast,120,2013-02-20 15:55:00
10:15 AM,16.0,5.0,62,30.25,10.0,ESE,15.0,-,N/A,,Overcast,120,2013-02-20 16:15:00
10:35 AM,16.9,5.5,61,30.26,10.0,SE,15.0,-,N/A,,Overcast,130,2013-02-20 16:35:00
10:55 AM,17.2,5.5,60,30.25,10.0,ESE,17.3,-,N/A,,Mostly Cloudy,120,2013-02-20 16:55:00
11:15 AM,18.5,6.3,59,30.24,10.0,ESE,15.0,-,N/A,,Overcast,110,2013-02-20 17:15:00
11:55 AM,21.2,6.3,53,30.22,10.0,ESE,18.4,-,N/A,,Overcast,110,2013-02-20 17:55:00
12:15 PM,23.5,6.1,47,30.21,10.0,ESE,17.3,21.9,N/A,,Overcast,120,2013-02-20 18:15:00
12:35 PM,24.3,5.4,45,30.20,10.0,ESE,17.3,24.2,N/A,,Mostly Cloudy,120,2013-02-20 18:35:00
12:55 PM,25.3,5.2,42,30.19,10.0,ESE,16.1,21.9,N/A,,Scattered Clouds,120,2013-02-20 18:55:00
1:15 PM,25.9,5.9,43,30.18,10.0,ESE,18.4,-,N/A,,Scattered Clouds,120,2013-02-20 19:15:00
1:35 PM,27.0,6.3,42,30.16,10.0,ESE,17.3,-,N/A,,Mostly Cloudy,110,2013-02-20 19:35:00
1:55 PM,27.9,4.5,37,30.15,10.0,ESE,15.0,-,N/A,,Scattered Clouds,120,2013-02-20 19:55:00
2:15 PM,27.5,5.4,39,30.15,10.0,ESE,16.1,-,N/A,,Mostly Cloudy,110,2013-02-20 20:15:00
2:55 PM,25.7,14.9,64,30.13,2.0,SE,16.1,-,N/A,Snow,Light Snow,130,2013-02-20 20:55:00
3:15 PM,25.2,16.0,68,30.13,2.0,ESE,15.0,-,N/A,Snow,Light Snow,120,2013-02-20 21:15:00
3:35 PM,25.0,14.4,64,30.13,4.0,ESE,15.0,19.6,N/A,,Haze,120,2013-02-20 21:35:00
3:55 PM,24.1,15.6,70,30.12,2.5,ESE,15.0,-,N/A,Snow,Light Snow,120,2013-02-20 21:55:00
4:15 PM,23.9,14.9,69,30.12,5.0,SE,16.1,-,N/A,Snow,Light Snow,130,2013-02-20 22:15:00
4:35 PM,23.9,13.3,64,30.11,5.0,ESE,18.4,23.0,N/A,Snow,Light Snow,110,2013-02-20 22:35:00
4:55 PM,24.3,10.0,55,30.10,10.0,ESE,16.1,-,N/A,,Overcast,110,2013-02-20 22:55:00
5:15 PM,24.6,10.2,54,30.10,10.0,ESE,18.4,-,N/A,,Overcast,110,2013-02-20 23:15:00
5:35 PM,23.9,9.1,53,30.10,10.0,ESE,18.4,23.0,N/A,,Overcast,110,2013-02-20 23:35:00
5:55 PM,23.4,9.9,56,30.10,5.0,East,15.0,-,N/A,Snow,Light Snow,100,2013-02-20 23:55:00
6:15 PM,22.6,9.7,58,30.10,7.0,ESE,18.4,-,N/A,Snow,Light Snow,110,2013-02-21 00:15:00
6:35 PM,22.1,11.1,63,30.09,5.0,ESE,17.3,-,N/A,Snow,Light Snow,110,2013-02-21 00:35:00
6:55 PM,21.9,11.1,63,30.09,10.0,East,15.0,-,N/A,,Overcast,100,2013-02-21 00:55:00
7:15 PM,22.1,10.2,60,30.10,10.0,East,11.5,-,N/A,,Overcast,100,2013-02-21 01:15:00
7:35 PM,22.1,9.5,58,30.10,10.0,East,15.0,-,N/A,,Overcast,100,2013-02-21 01:35:00
7:55 PM,22.1,9.5,58,30.10,10.0,East,17.3,-,N/A,,Overcast,100,2013-02-21 01:55:00
8:15 PM,22.1,9.7,59,30.11,10.0,East,17.3,-,N/A,,Overcast,100,2013-02-21 02:15:00
8:35 PM,22.1,10.9,62,30.11,7.0,East,18.4,-,N/A,Snow,Light Snow,100,2013-02-21 02:35:00
8:55 PM,22.1,13.3,69,30.10,5.0,East,18.4,-,N/A,Snow,Light Snow,100,2013-02-21 02:55:00
9:15 PM,21.7,15.6,77,30.11,4.0,ESE,15.0,-,N/A,Snow,Light Snow,110,2013-02-21 03:15:00
9:35 PM,21.4,16.3,81,30.11,5.0,East,18.4,-,N/A,Snow,Light Snow,100,2013-02-21 03:35:00
9:55 PM,21.2,16.3,82,30.11,7.0,East,12.7,-,N/A,Snow,Light Snow,100,2013-02-21 03:55:00
10:15 PM,21.0,16.3,82,30.11,5.0,East,15.0,-,N/A,Snow,Light Snow,90,2013-02-21 04:15:00
10:35 PM,21.2,16.7,83,30.12,7.0,ESE,13.8,-,N/A,Snow,Light Snow,110,2013-02-21 04:35:00
10:55 PM,21.2,15.6,79,30.13,5.0,ESE,16.1,-,N/A,Snow,Light Snow,110,2013-02-21 04:55:00
11:15 PM,21.2,15.4,78,30.13,5.0,ESE,13.8,-,N/A,Snow,Light Snow,120,2013-02-21 05:15:00
11:35 PM,21.6,15.1,76,30.13,7.0,ESE,12.7,-,N/A,Snow,Light Snow,120,2013-02-21 05:35:00
11:55 PM,21.6,15.1,76,30.13,7.0,ESE,12.7,-,N/A,Snow,Light Snow,110,2013-02-21 05:55:00